map of PAP home
PAP - Airport
Location
City:  Port-au-Prince, Haiti
Name:Toussaint Louverture International Airport
ICAO:MTPP
IATA:PAP

Details
Type:Airport (Aerodrome, Airfield)
Use:Public/Civil, International (customs port of entry)
Latitude:1834'48"N (18.580050)
Longitude:7217'33"W (-72.292541)
Datum:WGS 1984
Elevation:122 ft (37 m)
Variation:10.29W (WMM2015 magnetic declination)
-0.09 annual change
Runways:1
Longest:9974 × 141 ft (3040 × 43 m), paved

Time
Time Zone:UTC-5
Local Time:

Weather
METAR:MTPP 162200Z 29008KT 9999 SCT025 28/19 Q1014 A2997
TAF:MTPP 161740Z 1618/1718 VRB02KT 9999 FEW026
BECMG 1618/1620 30010KT SCT026CB
FM170600 09008KT 7000 FEW020
BECMG 1716/1718 27010KT=

Related Locations
Nearby:
Farthest:EXM: 11965 mi / 19256 km
Exmouth Gulf, WA, AU

Find:

   beyond  
but within

Other Information
Maps:
NOTAMs:
Links:
Sources:

  
  • flag of Haiti
  

Sectional Chart

Flight Planning
at skyvector.com

Satellite Image

Google Maps Satellite view

 

Copyright © 2004-2019 Karl L. Swartz. All rights reserved.
The Great Circle Mapper name and logo are trademarks of the Great Circle Mapper.
All other trademarks mentioned herein belong to their respective owners.
Please see credits for attibutions and further copyright information.

  Follow gcmap on Facebook Follow gcmap on Twitter Follow gcmap on Google+ GCmap on LinkedIn

hCard Microformat

Geo Microformat